Dewpoint
27 19 16 18 18 18 16 14 13 14 15 15 15 16 16 16 16 21 20 20 21 20 20 21 24 27 31 33 35 37 39 41 45 49 55 55 54 53 53 53 52 51 50 49
21 16 25 25 23 19 18 15 14 16 17 16 16 15 15 16 17 19 18 18 19 18 16 16 18 22 25 29 31 35 37 39 42 45 51 53 53 52 52 51 50 50 50 49
17 22 24 22 20 19 17 16 17 16 20 19 16 14 15 14 19 18 18 18 17 15 14 13 15 19 22 24 26 30 34 37 40 43 47 51 52 51 50 50 49 49 49 48
18 24 23 21 19 19 15 23 21 21 19 15 18 13 14 14 18 16 16 15 14 13 13 13 14 18 20 22 24 26 29 33 36 40 44 46 47 47 48 48 48 48 49 48
18 20 20 21 21 21 20 23 21 20 18 18 16 13 13 13 16 15 15 14 12 11 12 13 14 17 19 22 23 25 27 28 31 36 39 43 44 46 47 47 46 46 46 47
20 22 21 21 23 22 24 22 21 20 19 5 14 12 11 14 14 14 15 13 12 9 11 12 14 16 18 20 22 24 25 26 29 30 33 36 39 42 44 46 46 46 46 45
20 21 22 23 20 23 23 19 4 4 5 6 13 11 11 15 18 18 13 12 11 10 11 12 12 15 17 19 21 23 25 26 27 29 30 31 34 35 37 41 44 46 46 45
8 8 17 22 20 19 21 19 8 -0 3 7 14 9 9 17 15 11 12 11 12 12 13 13 14 15 16 18 20 23 25 25 27 27 29 30 31 33 34 35 37 39 42 45
11 11 17 19 20 19 20 17 20 8 7 7 13 13 13 18 13 7 7 10 11 12 14 14 16 18 18 18 20 22 24 25 26 27 28 28 29 29 30 32 33 34 36 36
18 9 16 19 19 19 19 21 11 11 -2 -3 8 5 2 8 13 14 9 7 9 11 14 15 15 16 20 20 19 22 25 25 25 27 27 27 28 29 28 29 30 31 33 34
19 14 14 15 14 15 18 16 18 17 16 3 0 2 9 15 17 18 17 12 9 11 13 15 16 15 18 21 20 21 23 25 25 26 27 28 28 28 27 27 28 29 31 32
22 20 14 13 13 13 14 17 18 10 8 13 10 9 12 13 16 17 19 22 14 12 13 15 16 15 18 21 23 24 25 25 25 25 26 27 27 26 26 27 27 28 29 30
19 12 -4 3 6 9 8 11 14 12 10 8 0 4 10 11 13 17 20 21 25 21 17 20 21 20 22 25 26 27 27 28 28 25 25 24 25 25 25 25 26 27 28 28
22 15 1 -2 -2 11 8 10 10 4 -4 2 5 7 7 8 14 16 16 16 19 23 18 20 18 21 22 24 24 25 25 27 27 28 27 26 24 24 24 21 19 19 23 26
17 5 9 11 15 13 11 10 10 8 6 1 5 6 10 14 14 14 17 19 19 22 18 17 20 21 22 24 25 25 26 25 25 25 26 25 26 26 22 17 16 16 17 21
16 2 10 2 11 9 7 5 6 7 9 8 7 6 7 8 11 15 17 19 22 23 25 27 26 26 26 26 25 23 22 21 23 21 20 21 22 22 20 18 17 16 15 15
8 5 -3 -7 6 4 -4 2 3 5 5 1 -3 5 10 7 10 9 13 16 15 16 20 22 22 21 26 21 23 18 18 20 18 17 17 17 17 18 18 18 16 17 17 15
8 5 1 -6 -5 -13 1 2 2 3 5 5 7 9 8 4 13 18 18 18 16 16 17 19 21 21 22 18 17 16 16 16 15 16 15 16 17 16 17 14 16 13 16 18
13 8 -4 -6 -17 -1 0 -2 -2 0 2 8 7 11 12 11 7 13 18 17 14 12 14 14 15 17 14 15 15 15 14 13 15 17 16 17 17 17 15 14 16 15 18 20
15 9 -1 -12 -10 -12 -2 3 -0 0 0 11 13 12 12 11 3 9 15 18 19 18 13 10 9 7 11 13 13 15 13 13 15 16 17 16 16 16 16 16 14 13 18 22
-3 -3 -1 -9 -12 -2 6 5 4 -4 2 13 13 12 11 11 10 12 13 13 16 21 21 18 14 10 6 6 12 11 11 10 14 16 16 15 14 15 17 19 17 18 19 21
3 -2 -2 -10 -12 -7 8 7 2 10 14 13 11 11 10 9 8 10 9 10 11 10 11 15 14 12 9 7 13 10 11 11 12 13 12 11 11 14 17 18 21 21 22 22
2 6 4 3 4 12 15 8 11 9 12 11 10 6 3 2 1 2 4 6 7 7 7 11 8 7 8 10 7 5 8 9 10 9 7 7 10 12 15 14 18 22 24 23
7 6 5 3 6 12 12 12 12 12 11 9 5 3 2 1 1 -1 -2 -2 1 3 3 6 4 3 3 3 4 4 5 7 6 5 5 6 7 8 10 12 15 20 22 22
8 9 5 6 9 13 11 9 9 9 6 3 3 3 0 -2 -4 -4 -3 -3 -2 -1 1 1 1 0 -1 0 1 2 4 4 3 2 3 4 5 6 8 10 13 17 21 24
9 8 6 3 8 8 9 7 4 3 -0 -2 -1 -1 -3 -4 -4 -3 -4 -3 -2 -2 -2 -3 -3 -3 -3 -2 -2 -1 -0 -0 -2 -1 0 1 2 3 4 5 7 12 15 18
Lifted_Index
9 8 7 7 8 7 6 5 5 6 8 8 7 6 6 6 7 7 7 7 6 7 7 8 9 9 8 7 7 6 5 3 1 0 -0 -1 -1 -1 -1 -1 -1 -1 -1 -0
8 7 7 8 8 7 6 5 5 6 7 7 6 6 6 6 7 7 7 7 6 6 7 8 9 8 8 7 7 6 5 3 2 1 0 0 -0 -0 -0 -0 -0 -0 -0 -0
7 7 8 8 7 6 6 5 5 6 6 6 6 5 5 6 7 7 6 6 6 6 7 8 8 8 8 8 7 6 5 4 2 1 1 1 1 1 1 0 0 0 0 0
7 7 7 7 6 6 6 6 6 6 6 5 5 4 5 6 6 6 6 6 6 6 7 8 8 9 9 9 8 7 6 4 3 2 2 1 1 1 1 1 1 1 1 1
7 8 7 6 6 7 6 7 7 6 6 5 5 5 5 6 6 6 6 6 5 6 7 8 9 10 11 11 10 10 8 7 5 4 2 2 2 1 1 1 1 1 2 2
8 8 8 7 7 7 7 7 6 5 5 4 5 5 5 5 5 5 5 5 5 5 6 8 9 10 10 10 11 11 10 9 8 7 5 4 3 2 1 1 1 2 2 3
7 7 7 7 7 7 7 6 4 3 2 3 5 5 5 5 4 4 4 4 4 5 6 7 8 9 9 8 8 9 9 10 10 10 9 8 7 5 3 2 2 2 3 3
5 5 7 7 7 7 7 6 4 2 2 3 4 5 5 5 4 4 3 3 3 4 5 7 8 7 7 6 7 7 8 8 9 10 11 11 10 9 8 6 5 4 4 4
4 5 6 8 8 7 7 6 5 4 3 3 3 4 5 4 4 3 3 3 3 4 5 6 7 6 6 6 6 7 7 8 9 10 11 11 11 11 11 10 9 8 7 6
5 5 6 8 8 8 7 7 6 5 3 2 2 3 4 4 4 3 3 3 3 3 4 5 6 6 5 5 6 7 7 8 9 10 10 11 11 11 12 12 12 11 10 9
6 6 6 7 7 7 7 7 6 5 4 3 2 2 3 4 3 3 3 2 2 3 3 4 5 5 5 5 6 7 8 8 9 9 10 10 11 11 11 12 12 12 12 12
7 6 5 6 7 8 8 7 7 6 5 4 3 3 4 4 3 3 3 2 2 2 3 4 4 4 5 5 6 7 8 9 9 10 10 10 11 11 11 11 12 12 13 13
7 6 4 4 6 7 7 7 7 6 5 4 4 4 4 4 4 4 4 3 3 3 3 3 3 4 4 5 7 8 9 9 10 10 10 10 11 11 11 12 12 12 13 13
8 6 5 4 5 6 7 7 7 6 6 5 4 4 4 4 4 4 4 4 4 4 3 3 4 4 5 6 7 8 9 10 10 10 10 10 11 11 11 12 12 13 13 13
7 6 5 5 6 6 6 6 6 6 6 5 5 4 4 4 4 4 4 5 5 4 4 4 4 5 5 6 8 9 9 10 10 10 10 10 10 11 11 12 12 13 13 13
7 6 5 5 5 5 5 5 6 6 6 6 5 4 4 5 5 4 4 4 4 4 4 4 4 5 6 7 8 9 9 9 10 10 10 10 10 10 11 11 12 12 13 13
7 6 5 4 4 4 4 5 6 7 7 6 5 5 5 5 5 5 5 4 4 4 4 5 5 5 6 7 8 8 9 9 9 10 10 10 10 10 10 11 11 12 12 13
7 6 5 4 3 3 4 6 7 7 6 6 5 5 5 5 5 5 5 5 4 5 5 5 5 6 6 7 7 8 8 9 9 9 10 10 10 10 10 10 11 11 12 12
7 7 6 4 2 3 5 7 7 6 6 6 6 6 6 6 6 5 5 5 5 5 5 5 5 6 6 6 7 7 8 8 9 9 9 10 10 10 10 10 10 11 11 11
7 7 6 4 2 3 5 7 7 6 5 6 7 8 8 7 7 7 7 7 6 6 6 6 6 5 6 6 6 6 7 7 8 8 9 9 10 10 10 10 10 10 11 11
6 6 5 4 3 4 6 7 7 5 6 7 9 9 9 9 9 10 10 9 8 8 8 7 7 6 6 6 6 6 6 7 8 8 8 9 9 10 10 10 10 10 10 11
5 5 5 4 4 5 7 8 7 7 8 9 10 10 11 11 11 12 12 12 11 11 11 10 9 8 7 7 7 7 7 8 8 9 9 9 9 10 10 10 10 10 11 11
5 5 5 6 6 7 8 8 8 9 10 10 11 12 12 12 13 13 13 14 14 14 14 13 12 11 10 9 9 8 8 9 10 10 10 10 10 10 10 10 11 11 11 11
6 6 7 7 7 8 9 9 10 11 11 12 13 13 14 13 14 14 14 15 15 16 16 16 15 14 12 12 11 11 11 11 11 10 10 10 11 11 11 11 11 11 11 11
6 7 7 7 8 9 9 10 11 12 12 13 13 14 14 14 14 14 15 16 16 17 18 18 17 16 15 14 14 13 13 13 12 11 11 11 11 11 11 11 11 11 11 11
6 6 6 7 8 9 9 10 12 12 12 13 13 13 14 14 14 15 15 16 16 17 17 18 18 17 16 16 15 15 15 14 13 11 11 11 11 11 11 11 11 11 11 11